Location: Arrodets-la-Barthe
(43.0306°N, 0.2829°E)
Time: 00:09:26
(UTC+00:00)

DUCHIFAT 1 - Pass Details

Date: 06 April 2023
Orbit: 567 x 581 km, 98.1° (Epoch: 29 May)

Event Time Altitude Azimuth Distance (km) Brightness Sun altitude
Rises 03:24:49 0° 11° (N) 2,786 ? -22.6°
Reaches altitude 10° 03:26:58 10° 10° (N) 1,881 ? -22.2°
Maximum altitude 03:31:02 75° 285° (WNW) 594 ? -21.6°
Enters shadow 03:31:18 71° 247° (WSW) 605 ? -21.6°
